FENGYUN 1C DEB

Satellite information

Favourite Embed

Satellite Type and Status

DEBRISIN ORBIT

Key statistics

Satellite FENGYUN 1C DEB at a glance.

Uptime

9555

Days in orbit

Revolutions

≈ 14.5

Per day

Orbit

SSO

Sun Synchronous Orbit

Inclination

99.4

Latest

Satellite identification and parameters

Extended collection of information and parameters for FENGYUN 1C DEB.

Object identification

Identified? True

Debris? True

Object name: FENGYUN 1C DEB

International designator: 1999-025CWV

Object number (NORAD): 32304

Object ID (CCSDS): 32304

Country: PEOPLES REPUBLIC OF CHINA (PRC)

Current information (Y/N): Y

RCS size: SMALL

Orbital parameters

Period: 99.421 minutes

Inclination: 99.3808 deg

SMA: 7109.075 km

Apoapsis: 768.147 km

Periapsis: 693.733 km

RAAN: 117.7035 deg

Eccentricy: 0.0052337

Argument of periapsis: 357.4962 deg

Mean anomaly: 2.5958 deg

Mean motion: 14.48382043 rev/day

Mean motion (dot): 0.00002768 rev/day2

B* drag term: 0.00074131 1/REarth

Two-line elements (TLE)

Creation date: June 30, 2025, 10:56 p.m.

Reference frame: TEME

Reference center: EARTH

Epoch: June 30, 2025, 2:37 p.m. UTC

TLE line 0: 0 FENGYUN 1C DEB

TLE line 1: 1 32304U 99025CWV 25181.60947996 .00002768 00000-0 74131-3 0 9996

TLE line 2: 2 32304 99.3808 117.7035 0052337 357.4962 2.5958 14.48382043938793

Live tracking on map

Real-time ground track for satellite FENGYUN 1C DEB.

In-orbit conjunctions

A list of the most updated potential collisions computed for object FENGYUN 1C DEB.

Target Orbit TCA Probability of collision Miss distance Type
DMSP 5D-2 F10 (USA 68) SSO 2025-03-08 18:22:40 0.0001084263 391.0 (m) PAYLOAD
OSCAR 18 (WEBERSAT) SSO 2024-10-14 22:53:52 0.0001272798 481.0 (m) PAYLOAD

Associated space launch

Chinese polar orbiting meteorological satellite

FENGYUN 1C DEB was lifted into orbit during the mission ‘Long March 4B | Feng Yun 1C’, on board a Long March 4B space rocket.

The launch took place on May 10, 1999, 1:33 a.m. from Launch Complex 7.

For more information about the launch, click the button.

Launch to space Long March 4B | Feng Yun 1C
Long March 4B | Feng Yun 1C

Agency: N/A

Status: Launch Successful

Launch date: May 10, 1999, 1:33 a.m. UTC

Rocket: Long March 4B

Launch pad: Launch Complex 7

Location: Taiyuan Satellite Launch Center, People's Republic of China

...

Latest news about this satellite

There are no fresh news available about this satellite. Check back as we update our databases every day.


Newsletter sign-up

Weekly statistics, charts and insights to help you stay on top of the space industry.